����������;��������(kVARh)
2018-07-16 00:00;10,45
2018-07-16 00:15;13
2018-07-16 00:30;12,2
2018-07-16 00:45;14,45
2018-07-16 01:00;11,7
2018-07-16 01:15;7,7
2018-07-16 01:30;8,1
2018-07-16 01:45;6
2018-07-16 02:00;7,95
2018-07-16 02:15;7,7
2018-07-16 02:30;7,45
2018-07-16 02:45;9,45
2018-07-16 03:00;7,3
2018-07-16 03:15;9,15
2018-07-16 03:30;10,65
2018-07-16 03:45;10,6
2018-07-16 04:00;11,65
2018-07-16 04:15;10,9
2018-07-16 04:30;12,5
2018-07-16 04:45;13,05
2018-07-16 05:00;12,4
2018-07-16 05:15;12,45
2018-07-16 05:30;12,6
2018-07-16 05:45;11,4
2018-07-16 06:00;12,5
2018-07-16 06:15;10,85
2018-07-16 06:30;20,55
2018-07-16 06:45;29,7
2018-07-16 07:00;27,75
2018-07-16 07:15;20,75
2018-07-16 07:30;17,85
2018-07-16 07:45;54
2018-07-16 08:00;59,85
2018-07-16 08:15;59,35
2018-07-16 08:30;38,45
2018-07-16 08:45;47,05
2018-07-16 09:00;50,45
2018-07-16 09:15;56,05
2018-07-16 09:30;56
2018-07-16 09:45;59,35
2018-07-16 10:00;66,95
2018-07-16 10:15;68,85
2018-07-16 10:30;68,3
2018-07-16 10:45;84,1
2018-07-16 11:00;83,3
2018-07-16 11:15;83,05
2018-07-16 11:30;89,25
2018-07-16 11:45;88,6
2018-07-16 12:00;88,3
2018-07-16 12:15;94
2018-07-16 12:30;84,15
2018-07-16 12:45;89,65
2018-07-16 13:00;90,15
2018-07-16 13:15;81,5
2018-07-16 13:30;89,3
2018-07-16 13:45;81,15
2018-07-16 14:00;79,4
2018-07-16 14:15;84,35
2018-07-16 14:30;76,8
2018-07-16 14:45;74,6
2018-07-16 15:00;78,25
2018-07-16 15:15;73
2018-07-16 15:30;70,7
2018-07-16 15:45;64,4
2018-07-16 16:00;62,9
2018-07-16 16:15;70,05
2018-07-16 16:30;61,9
2018-07-16 16:45;53,8
2018-07-16 17:00;57,65
2018-07-16 17:15;48,7
2018-07-16 17:30;43,45
2018-07-16 17:45;54,95
2018-07-16 18:00;46,1
2018-07-16 18:15;43
2018-07-16 18:30;42,15
2018-07-16 18:45;46
2018-07-16 19:00;43,05
2018-07-16 19:15;38,5
2018-07-16 19:30;35,25
2018-07-16 19:45;34,75
2018-07-16 20:00;28,35
2018-07-16 20:15;23,6
2018-07-16 20:30;22,95
2018-07-16 20:45;22,95
2018-07-16 21:00;21,9
2018-07-16 21:15;23,25
2018-07-16 21:30;25,6
2018-07-16 21:45;25,85
2018-07-16 22:00;26,35
2018-07-16 22:15;24,6
2018-07-16 22:30;21,7
2018-07-16 22:45;21,85
2018-07-16 23:00;22,5
2018-07-16 23:15;22,9
2018-07-16 23:30;23,45
2018-07-16 23:45;20,5
2018-07-17 00:00;18,8
2018-07-17 00:15;23,85
2018-07-17 00:30;26,15
2018-07-17 00:45;21,7
2018-07-17 01:00;10,85
2018-07-17 01:15;5,15
2018-07-17 01:30;4,25
2018-07-17 01:45;0,5
2018-07-17 02:00;0,15
2018-07-17 02:15;0,35
2018-07-17 02:30;0,75
2018-07-17 02:45;1,35
2018-07-17 03:00;1,4
2018-07-17 03:15;1
2018-07-17 03:30;0,8
2018-07-17 03:45;1,1
2018-07-17 04:00;1,5
2018-07-17 04:15;1,85
2018-07-17 04:30;5,5
2018-07-17 04:45;7,1
2018-07-17 05:00;7,25
2018-07-17 05:15;7,15
2018-07-17 05:30;6,95
2018-07-17 05:45;7,2
2018-07-17 06:00;8,2
2018-07-17 06:15;7,95
2018-07-17 06:30;8,45
2018-07-17 06:45;23,55
2018-07-17 07:00;25,8
2018-07-17 07:15;22,15
2018-07-17 07:30;22,5
2018-07-17 07:45;24,6
2018-07-17 08:00;22,7
2018-07-17 08:15;24,15
2018-07-17 08:30;44,95
2018-07-17 08:45;68,65
2018-07-17 09:00;44,65
2018-07-17 09:15;47,9
2018-07-17 09:30;51,5
2018-07-17 09:45;56,7
2018-07-17 10:00;58,55
2018-07-17 10:15;65,35
2018-07-17 10:30;69
2018-07-17 10:45;70,7
2018-07-17 11:00;72,55
2018-07-17 11:15;76,35
2018-07-17 11:30;90,7
2018-07-17 11:45;85,1
2018-07-17 12:00;85,4
2018-07-17 12:15;95,05
2018-07-17 12:30;85,45
2018-07-17 12:45;89,75
2018-07-17 13:00;86,7
2018-07-17 13:15;83,6
2018-07-17 13:30;83,95
2018-07-17 13:45;83,15
2018-07-17 14:00;83,35
2018-07-17 14:15;82,45
2018-07-17 14:30;85,2
2018-07-17 14:45;85,8
2018-07-17 15:00;83,65
2018-07-17 15:15;74,65
2018-07-17 15:30;76,2
2018-07-17 15:45;79,6
2018-07-17 16:00;71,1
2018-07-17 16:15;73,6
2018-07-17 16:30;67,9
2018-07-17 16:45;61,45
2018-07-17 17:00;71,6
2018-07-17 17:15;58,75
2018-07-17 17:30;53,45
2018-07-17 17:45;62,7
2018-07-17 18:00;53,45
2018-07-17 18:15;50,65
2018-07-17 18:30;52,6
2018-07-17 18:45;45,05
2018-07-17 19:00;45,4
2018-07-17 19:15;41,7
2018-07-17 19:30;36
2018-07-17 19:45;32,8
2018-07-17 20:00;33,7
2018-07-17 20:15;31,85
2018-07-17 20:30;32
2018-07-17 20:45;32,4
2018-07-17 21:00;31,15
2018-07-17 21:15;32,75
2018-07-17 21:30;33,35
2018-07-17 21:45;34,5
2018-07-17 22:00;30,5
2018-07-17 22:15;25,3
2018-07-17 22:30;16,9
2018-07-17 22:45;17,15
2018-07-17 23:00;18,55
2018-07-17 23:15;16,8
2018-07-17 23:30;16,5
2018-07-17 23:45;16,3
2018-07-18 00:00;13,7
2018-07-18 00:15;5,2
2018-07-18 00:30;2,8
2018-07-18 00:45;1,2
2018-07-18 01:00;1
2018-07-18 01:15;2,25
2018-07-18 01:30;2,05
2018-07-18 01:45;1,6
2018-07-18 02:00;1,75
2018-07-18 02:15;2,75
2018-07-18 02:30;3,9
2018-07-18 02:45;4,15
2018-07-18 03:00;9,65
2018-07-18 03:15;11,7
2018-07-18 03:30;12,2
2018-07-18 03:45;12,4
2018-07-18 04:00;12,6
2018-07-18 04:15;10,7
2018-07-18 04:30;12,05
2018-07-18 04:45;14
2018-07-18 05:00;14,35
2018-07-18 05:15;11,95
2018-07-18 05:30;19,55
2018-07-18 05:45;20,3
2018-07-18 06:00;20,7
2018-07-18 06:15;19,65
2018-07-18 06:30;21,25
2018-07-18 06:45;21
2018-07-18 07:00;20,7
2018-07-18 07:15;36,15
2018-07-18 07:30;41,75
2018-07-18 07:45;66,65
2018-07-18 08:00;37,85
2018-07-18 08:15;34,45
2018-07-18 08:30;35,9
2018-07-18 08:45;45
2018-07-18 09:00;44,65
2018-07-18 09:15;48,05
2018-07-18 09:30;55,1
2018-07-18 09:45;58,2
2018-07-18 10:00;68,25
2018-07-18 10:15;64,95
2018-07-18 10:30;67,4
2018-07-18 10:45;70,65
2018-07-18 11:00;74,4
2018-07-18 11:15;73,6
2018-07-18 11:30;82,3
2018-07-18 11:45;83,1
2018-07-18 12:00;87,1
2018-07-18 12:15;108,8
2018-07-18 12:30;109,75
2018-07-18 12:45;90,55
2018-07-18 13:00;91,4
2018-07-18 13:15;84
2018-07-18 13:30;96,3
2018-07-18 13:45;95,4
2018-07-18 14:00;95,65
2018-07-18 14:15;94,35
2018-07-18 14:30;95,05
2018-07-18 14:45;95,85
2018-07-18 15:00;95,9
2018-07-18 15:15;94,8
2018-07-18 15:30;89,2
2018-07-18 15:45;87,3
2018-07-18 16:00;82,3
2018-07-18 16:15;80,8
2018-07-18 16:30;71,95
2018-07-18 16:45;64
2018-07-18 17:00;56,75
2018-07-18 17:15;61,5
2018-07-18 17:30;59,2
2018-07-18 17:45;53,2
2018-07-18 18:00;59,85
2018-07-18 18:15;51,95
2018-07-18 18:30;45,3
2018-07-18 18:45;45,1
2018-07-18 19:00;32,35
2018-07-18 19:15;26,35
2018-07-18 19:30;23,6
2018-07-18 19:45;24,25
2018-07-18 20:00;24,7
2018-07-18 20:15;23,2
2018-07-18 20:30;23
2018-07-18 20:45;21,3
2018-07-18 21:00;12,75
2018-07-18 21:15;17,95
2018-07-18 21:30;18,6
2018-07-18 21:45;19,95
2018-07-18 22:00;20
2018-07-18 22:15;18,1
2018-07-18 22:30;18
2018-07-18 22:45;18,4
2018-07-18 23:00;18,9
2018-07-18 23:15;17
2018-07-18 23:30;16,5
2018-07-18 23:45;15,15
2018-07-19 00:00;14,65
2018-07-19 00:15;15,1
2018-07-19 00:30;15,4
2018-07-19 00:45;15,2
2018-07-19 01:00;15,5
2018-07-19 01:15;15,95
2018-07-19 01:30;16,3
2018-07-19 01:45;16,9
2018-07-19 02:00;16,95
2018-07-19 02:15;17,9
2018-07-19 02:30;19
2018-07-19 02:45;19,8
2018-07-19 03:00;19,7
2018-07-19 03:15;20,25
2018-07-19 03:30;22,15
2018-07-19 03:45;24,4
2018-07-19 04:00;24,9
2018-07-19 04:15;22,6
2018-07-19 04:30;16,7
2018-07-19 04:45;15,8
2018-07-19 05:00;15,3
2018-07-19 05:15;16,5
2018-07-19 05:30;19,9
2018-07-19 05:45;20,85
2018-07-19 06:00;19,6
2018-07-19 06:15;19,25
2018-07-19 06:30;16,2
2018-07-19 06:45;17,2
2018-07-19 07:00;16,2
2018-07-19 07:15;25,15
2018-07-19 07:30;25,8
2018-07-19 07:45;73,2
2018-07-19 08:00;71,95
2018-07-19 08:15;52,45
2018-07-19 08:30;41,05
2018-07-19 08:45;44,35
2018-07-19 09:00;54,95
2018-07-19 09:15;58,5
2018-07-19 09:30;55,3
2018-07-19 09:45;63,2
2018-07-19 10:00;66,1
2018-07-19 10:15;61,45
2018-07-19 10:30;69,15
2018-07-19 10:45;78,1
2018-07-19 11:00;73,5
2018-07-19 11:15;82,1
2018-07-19 11:30;86,65
2018-07-19 11:45;80,7
2018-07-19 12:00;91,15
2018-07-19 12:15;87,35
2018-07-19 12:30;85,1
2018-07-19 12:45;91,15
2018-07-19 13:00;87,35
2018-07-19 13:15;99,15
2018-07-19 13:30;98,6
2018-07-19 13:45;97,55
2018-07-19 14:00;95,1
2018-07-19 14:15;91,05
2018-07-19 14:30;84,55
2018-07-19 14:45;78,75
2018-07-19 15:00;72,95
2018-07-19 15:15;66,7
2018-07-19 15:30;68,15
2018-07-19 15:45;65,5
2018-07-19 16:00;62,95
2018-07-19 16:15;61,25
2018-07-19 16:30;54,7
2018-07-19 16:45;53,4
2018-07-19 17:00;47,7
2018-07-19 17:15;44,5
2018-07-19 17:30;42,3
2018-07-19 17:45;42,7
2018-07-19 18:00;44,4
2018-07-19 18:15;42
2018-07-19 18:30;46
2018-07-19 18:45;41,4
2018-07-19 19:00;40,4
2018-07-19 19:15;37,75
2018-07-19 19:30;32,95
2018-07-19 19:45;32,15
2018-07-19 20:00;32,7
2018-07-19 20:15;32,35
2018-07-19 20:30;30,05
2018-07-19 20:45;26,55
2018-07-19 21:00;27,5
2018-07-19 21:15;22,1
2018-07-19 21:30;21
2018-07-19 21:45;22,65
2018-07-19 22:00;23,95
2018-07-19 22:15;24,2
2018-07-19 22:30;22,6
2018-07-19 22:45;21,6
2018-07-19 23:00;18,65
2018-07-19 23:15;10,15
2018-07-19 23:30;8,9
2018-07-19 23:45;8,7
2018-07-20 00:00;7,05
2018-07-20 00:15;8,35
2018-07-20 00:30;9,4
2018-07-20 00:45;8,95
2018-07-20 01:00;9,45
2018-07-20 01:15;9,8
2018-07-20 01:30;10,65
2018-07-20 01:45;11,05
2018-07-20 02:00;11,55
2018-07-20 02:15;9,7
2018-07-20 02:30;10,25
2018-07-20 02:45;9,5
2018-07-20 03:00;9
2018-07-20 03:15;9,9
2018-07-20 03:30;11,25
2018-07-20 03:45;13,55
2018-07-20 04:00;13,4
2018-07-20 04:15;14,3
2018-07-20 04:30;14,3
2018-07-20 04:45;29,45
2018-07-20 05:00;31,85
2018-07-20 05:15;28,9
2018-07-20 05:30;24,9
2018-07-20 05:45;23,8
2018-07-20 06:00;22,1
2018-07-20 06:15;22,6
2018-07-20 06:30;23,1
2018-07-20 06:45;33,45
2018-07-20 07:00;35
2018-07-20 07:15;33,9
2018-07-20 07:30;32,75
2018-07-20 07:45;65,05
2018-07-20 08:00;39,4
2018-07-20 08:15;38,55
2018-07-20 08:30;39,1
2018-07-20 08:45;45,3
2018-07-20 09:00;46,65
2018-07-20 09:15;50,4
2018-07-20 09:30;52,6
2018-07-20 09:45;61,95
2018-07-20 10:00;66,8
2018-07-20 10:15;80,55
2018-07-20 10:30;76,65
2018-07-20 10:45;76,35
2018-07-20 11:00;86,05
2018-07-20 11:15;79,55
2018-07-20 11:30;85,45
2018-07-20 11:45;88,2
2018-07-20 12:00;84,85
2018-07-20 12:15;91,25
2018-07-20 12:30;84,25
2018-07-20 12:45;82,05
2018-07-20 13:00;82,7
2018-07-20 13:15;82,55
2018-07-20 13:30;81,3
2018-07-20 13:45;81,35
2018-07-20 14:00;80,3
2018-07-20 14:15;79,2
2018-07-20 14:30;79,15
2018-07-20 14:45;79,65
2018-07-20 15:00;76,7
2018-07-20 15:15;73,15
2018-07-20 15:30;77,7
2018-07-20 15:45;73,7
2018-07-20 16:00;65,85
2018-07-20 16:15;73,5
2018-07-20 16:30;65,7
2018-07-20 16:45;54,9
2018-07-20 17:00;56,35
2018-07-20 17:15;47,15
2018-07-20 17:30;41,5
2018-07-20 17:45;48,75
2018-07-20 18:00;42,7
2018-07-20 18:15;40,55
2018-07-20 18:30;41,6
2018-07-20 18:45;37,6
2018-07-20 19:00;40,05
2018-07-20 19:15;31,05
2018-07-20 19:30;30,35
2018-07-20 19:45;31,5
2018-07-20 20:00;31,15
2018-07-20 20:15;32,4
2018-07-20 20:30;32,7
2018-07-20 20:45;31,6
2018-07-20 21:00;33,1
2018-07-20 21:15;32,6
2018-07-20 21:30;32,25
2018-07-20 21:45;31,5
2018-07-20 22:00;33,35
2018-07-20 22:15;33,95
2018-07-20 22:30;30,35
2018-07-20 22:45;15,15
2018-07-20 23:00;17
2018-07-20 23:15;17,95
2018-07-20 23:30;12,45
2018-07-20 23:45;3,65
2018-07-21 00:00;3,5
2018-07-21 00:15;4,6
2018-07-21 00:30;5,75
2018-07-21 00:45;3,7
2018-07-21 01:00;4,05
2018-07-21 01:15;5
2018-07-21 01:30;6,85
2018-07-21 01:45;7,25
2018-07-21 02:00;9,3
2018-07-21 02:15;8,4
2018-07-21 02:30;9,9
2018-07-21 02:45;4,6
2018-07-21 03:00;4,7
2018-07-21 03:15;4,15
2018-07-21 03:30;5,55
2018-07-21 03:45;5,9
2018-07-21 04:00;5,15
2018-07-21 04:15;4,35
2018-07-21 04:30;5,75
2018-07-21 04:45;5,85
2018-07-21 05:00;6
2018-07-21 05:15;6,8
2018-07-21 05:30;6,65
2018-07-21 05:45;6,45
2018-07-21 06:00;7,25
2018-07-21 06:15;5,05
2018-07-21 06:30;6,45
2018-07-21 06:45;6,3
2018-07-21 07:00;5,15
2018-07-21 07:15;3
2018-07-21 07:30;2,8
2018-07-21 07:45;3,5
2018-07-21 08:00;4,1
2018-07-21 08:15;2,55
2018-07-21 08:30;2,5
2018-07-21 08:45;1,65
2018-07-21 09:00;0,9
2018-07-21 09:15;0,4
2018-07-21 09:30;0,6
2018-07-21 09:45;6,05
2018-07-21 10:00;7,25
2018-07-21 10:15;5,9
2018-07-21 10:30;11,25
2018-07-21 10:45;10,15
2018-07-21 11:00;10,5
2018-07-21 11:15;9,55
2018-07-21 11:30;9,55
2018-07-21 11:45;9,8
2018-07-21 12:00;11,1
2018-07-21 12:15;10,5
2018-07-21 12:30;9,9
2018-07-21 12:45;9,4
2018-07-21 13:00;9,85
2018-07-21 13:15;8,65
2018-07-21 13:30;8,25
2018-07-21 13:45;9,45
2018-07-21 14:00;9
2018-07-21 14:15;11,8
2018-07-21 14:30;14,15
2018-07-21 14:45;16,7
2018-07-21 15:00;16,7
2018-07-21 15:15;17,15
2018-07-21 15:30;18,7
2018-07-21 15:45;18,75
2018-07-21 16:00;18,35
2018-07-21 16:15;14,75
2018-07-21 16:30;15,2
2018-07-21 16:45;13,95
2018-07-21 17:00;12,4
2018-07-21 17:15;14,05
2018-07-21 17:30;13,15
2018-07-21 17:45;14,25
2018-07-21 18:00;13,25
2018-07-21 18:15;11,1
2018-07-21 18:30;11,6
2018-07-21 18:45;13,2
2018-07-21 19:00;13,3
2018-07-21 19:15;15
2018-07-21 19:30;15,7
2018-07-21 19:45;17,45
2018-07-21 20:00;17,45
2018-07-21 20:15;18,25
2018-07-21 20:30;17,95
2018-07-21 20:45;19,2
2018-07-21 21:00;19,35
2018-07-21 21:15;17
2018-07-21 21:30;16,1
2018-07-21 21:45;17,35
2018-07-21 22:00;17,7
2018-07-21 22:15;17,55
2018-07-21 22:30;15,95
2018-07-21 22:45;16,5
2018-07-21 23:00;17,45
2018-07-21 23:15;18,3
2018-07-21 23:30;9,1
2018-07-21 23:45;4,95
2018-07-22 00:00;0,3
2018-07-22 00:15;0,25
2018-07-22 00:30;0,05
2018-07-22 00:45;0,4
2018-07-22 01:00;1,1
2018-07-22 01:15;4,05
2018-07-22 01:30;1,9
2018-07-22 01:45;2,1
2018-07-22 02:00;2,8
2018-07-22 02:15;3,15
2018-07-22 02:30;2,7
2018-07-22 02:45;3,6
2018-07-22 03:00;2,65
2018-07-22 03:15;2,45
2018-07-22 03:30;2,6
2018-07-22 03:45;4,05
2018-07-22 04:00;2,8
2018-07-22 04:15;3,15
2018-07-22 04:30;3,55
2018-07-22 04:45;3,25
2018-07-22 05:00;4,3
2018-07-22 05:15;3,95
2018-07-22 05:30;4,25
2018-07-22 05:45;3,35
2018-07-22 06:00;3,15
2018-07-22 06:15;4,45
2018-07-22 06:30;4
2018-07-22 06:45;4,25
2018-07-22 07:00;4,55
2018-07-22 07:15;4,05
2018-07-22 07:30;1,9
2018-07-22 07:45;4,3
2018-07-22 08:00;5,95
2018-07-22 08:15;5,5
2018-07-22 08:30;3,65
2018-07-22 08:45;0,45
2018-07-22 09:00;0,55
2018-07-22 09:15;3,5
2018-07-22 09:30;5,1
2018-07-22 09:45;3,85
2018-07-22 10:00;4,55
2018-07-22 10:15;3,9
2018-07-22 10:30;3,1
2018-07-22 10:45;4,9
2018-07-22 11:00;5,75
2018-07-22 11:15;4,35
2018-07-22 11:30;6,05
2018-07-22 11:45;4,9
2018-07-22 12:00;5,55
2018-07-22 12:15;5,95
2018-07-22 12:30;5,65
2018-07-22 12:45;5,2
2018-07-22 13:00;5,4
2018-07-22 13:15;4,35
2018-07-22 13:30;4
2018-07-22 13:45;4,15
2018-07-22 14:00;3,6
2018-07-22 14:15;4
2018-07-22 14:30;3,1
2018-07-22 14:45;3,95
2018-07-22 15:00;3,95
2018-07-22 15:15;4,3
2018-07-22 15:30;4,3
2018-07-22 15:45;4,5
2018-07-22 16:00;3,9
2018-07-22 16:15;4,7
2018-07-22 16:30;4,8
2018-07-22 16:45;6,35
2018-07-22 17:00;3,95
2018-07-22 17:15;4
2018-07-22 17:30;5,45
2018-07-22 17:45;5,35
2018-07-22 18:00;4,95
2018-07-22 18:15;4
2018-07-22 18:30;3,9
2018-07-22 18:45;5,6
2018-07-22 19:00;3,85
2018-07-22 19:15;5,1
2018-07-22 19:30;6,4
2018-07-22 19:45;7,8
2018-07-22 20:00;7,15
2018-07-22 20:15;8,3
2018-07-22 20:30;9,45
2018-07-22 20:45;11,15
2018-07-22 21:00;11,75
2018-07-22 21:15;9,2
2018-07-22 21:30;10,6
2018-07-22 21:45;10,5
2018-07-22 22:00;10,1
2018-07-22 22:15;6,1
2018-07-22 22:30;5,55
2018-07-22 22:45;6,25
2018-07-22 23:00;7,65
2018-07-22 23:15;6,4
2018-07-22 23:30;8,95
2018-07-22 23:45;9,15

